Flag for Austria Weather past 2 weeks in Bruck an der Mur, Styria, Austria

Now
50 °F

Cool.


Feels Like: 50 °F
Forecast: 47 / 78 °F
Wind: No wind

Location: Graz-Thalerhof-Flughafen

Current Time: Aug 28, 2014 at 3:25:13 AM

Latest Report: Aug 28, 2014 at 2:50 AM


Visibility: N/A

Pressure: 30.12 "Hg

Humidity: 100%

Dew point: 50 °F

Location of Bruck an der MurLocation

Historic Weather in Bruck an der Mur — Graph

°F

Bruck an der Mur temperature yesterday

Maximum temperature yesterday: 77 °F (at 2:20 PM)
Minimum temperature yesterday: 54 °F (at 11:50 PM)
Average temperature yesterday: 65 °F

Past Weeks' High & Low Weather Summary

 TemperatureHumidityPressure
High77 °F (Aug 27, 2:20 PM)100% (Aug 13, 3:50 AM)30.15 "Hg (Aug 13, 3:50 AM)
Low48 °F (Aug 16, 4:50 AM)38% (Aug 17, 2:20 PM)29.71 "Hg (Aug 13, 8:20 PM)
Average61 °F81%29.96 "Hg
* Reported Aug 13 1:20 AM — Aug 28 1:50 AM, Bruck an der Mur, Weather by CustomWeather, © 2014

Note: Actual official high and low records may vary slightly from our data, if they occured in-between our weather recording intervals... More about our weather records

Advertising

Bruck an der Mur weather history for previous 24 hours

 ConditionsComfort  
Time TempWeatherWind HumidityBarometerVisibility
1:50 AM
Aug 28
52 °FCool.1 mph88%30.12 "HgN/A
1:20 AM52 °FCool.2 mph94%30.12 "HgN/A
12:50 AM52 °FCool.2 mph94%30.09 "HgN/A
12:20 AM54 °FCool.2 mph94%30.09 "HgN/A
11:50 PM
Aug 27
54 °FCool.1 mph94%30.09 "HgN/A
11:20 PM55 °FClear.2 mph88%30.09 "Hg10 mi
10:50 PM57 °FClear.3 mph82%30.07 "Hg10 mi
10:20 PM59 °FPassing clouds.3 mph77%30.07 "HgN/A
9:50 PM59 °FClear.6 mph77%30.07 "Hg10 mi
9:20 PM63 °FClear.5 mph73%30.04 "Hg10 mi
8:50 PM64 °FClear.12 mph56%30.01 "Hg10 mi
7:50 PM68 °FPassing clouds.10 mph49%29.98 "HgN/A
7:20 PM68 °FSunny.13 mph53%29.95 "Hg10 mi
6:50 PM70 °FSunny.13 mph46%29.95 "Hg10 mi
6:20 PM72 °FSunny.13 mph47%29.92 "Hg10 mi
5:50 PM73 °FPassing clouds.14 mph38%29.92 "HgN/A
4:20 PM73 °FPassing clouds.18 mph44%29.86 "HgN/A
3:50 PM75 °FPassing clouds.18 mph41%29.86 "HgN/A
3:20 PM75 °FPassing clouds.18 mph44%29.86 "HgN/A
2:50 PM75 °FScattered clouds.8 mph44%29.86 "HgN/A
2:20 PM77 °FScattered clouds.5 mph42%29.83 "HgN/A
1:50 PM73 °FScattered clouds.2 mph57%29.83 "HgN/A
1:20 PM73 °FScattered clouds.3 mph61%29.83 "HgN/A
12:50 PM72 °FScattered clouds.6 mph69%29.83 "HgN/A
12:20 PM72 °FScattered clouds.7 mph73%29.83 "HgN/A
11:50 AM68 °FScattered clouds.7 mph83%29.83 "HgN/A
11:20 AM66 °FPartly sunny.3 mph83%29.83 "HgN/A
10:50 AM64 °FPartly sunny.6 mph94%29.83 "HgN/A
10:20 AM64 °FPartly sunny.3 mph88%29.83 "HgN/A
9:50 AM64 °FPartly sunny.2 mph88%29.83 "HgN/A
9:20 AM64 °FPartly sunny.5 mph88%29.83 "HgN/A
8:50 AM63 °FPartly sunny.3 mph94%29.83 "HgN/A
8:20 AM63 °FPartly sunny.1 mph88%29.80 "HgN/A
7:50 AM61 °FPartly sunny.2 mph94%29.80 "HgN/A
7:20 AM63 °FSunny.2 mph94%29.77 "Hg10 mi
6:50 AM59 °FPassing clouds.1 mph94%29.80 "HgN/A
6:20 AM59 °FPassing clouds.2 mph94%29.80 "HgN/A
5:50 AM59 °FPartly cloudy.5 mph94%29.77 "HgN/A
5:20 AM59 °FPartly cloudy.3 mph100%29.77 "HgN/A
4:50 AM61 °FPartly cloudy.3 mph94%29.77 "HgN/A
4:20 AM61 °FPartly cloudy.3 mph94%29.77 "HgN/A
3:50 AM61 °FPartly cloudy.2 mph94%29.77 "HgN/A
3:20 AM61 °FPassing clouds.5 mph94%29.77 "HgN/A
Weather by CustomWeather, © 2014

See weather overviewHow to use our weather pages